Home   Weather   Kelowna   Past weeks

Flag for Canada Past Weather in Kelowna, British Columbia, Canada — Yesterday and Last 2 Weeks

Now
12 °F

Overcast.


Feels Like: 4 °F
Forecast: 10 / 22 °F
Wind: 5 mph from Northeast

Location: Kelowna Airport

Current Time: Dec 9, 2016 at 1:43:38 am

Latest Report: Dec 9, 2016 at 1:00 am


Visibility: 9 mi

Pressure: 30.37 "Hg

Humidity: 79%

Dew Point: 7 °F

Location of KelownaLocation

Past Weather in Kelowna — Graph

°F

Kelowna Temperature Yesterday

Maximum temperature yesterday: 21 °F (at 1:00 pm)
Minimum temperature yesterday: 9 °F (at 12:00 am)
Average temperature yesterday: 15 °F

High & Low Weather Summary for the Past Weeks

 TemperatureHumidityPressure
High52 °F (Nov 25, 1:00 pm)100% (Nov 26, 6:00 am)30.71 "Hg (Nov 26, 6:00 am)
Low9 °F (Dec 8, 12:00 am)44% (Dec 4, 3:00 pm)29.46 "Hg (Nov 27, 9:00 pm)
Average34 °F79%30.04 "Hg
* Reported Nov 24 12:00 am — Dec 9 12:00 am, Kelowna, Weather by CustomWeather, © 2016

Note: Actual official high and low records may vary slightly from our data, if they occured in-between our weather recording intervals... More about our weather records

Advertising

Kelowna Weather History for the Previous 24 Hours

Scroll right to see more
 ConditionsComfort  
Time TempWeatherWind HumidityBarometerVisibility
12:00 am
Fri, Dec 9
12 °FOvercast.3 mph79%30.38 "Hg9 mi
11:00 pm
Thu, Dec 8
12 °FPassing clouds.6 mph73%30.37 "Hg9 mi
10:00 pm12 °FPassing clouds.2 mph73%30.37 "Hg9 mi
9:00 pm12 °FClear.3 mph73%30.37 "Hg9 mi
8:00 pm12 °FClear.7 mph73%30.39 "Hg9 mi
7:00 pm12 °FClear.3 mph73%30.40 "Hg9 mi
6:00 pm12 °FClear.2 mph79%30.40 "Hg9 mi
5:00 pm16 °FClear.6 mph73%30.41 "Hg9 mi
4:00 pm18 °FClear.10 mph68%30.42 "Hg9 mi
3:00 pm19 °FSunny.13 mph63%30.43 "Hg9 mi
2:00 pm21 °FSunny.12 mph63%30.44 "Hg9 mi
1:00 pm21 °FSunny.13 mph58%30.47 "Hg9 mi
12:00 pm19 °FSunny.16 mph68%30.51 "Hg9 mi
11:00 am19 °FSunny.20 mph68%30.54 "Hg9 mi
10:00 am18 °FSunny.15 mph73%30.56 "Hg9 mi
9:00 am16 °FOvercast.5 mph73%30.58 "Hg9 mi
8:00 am12 °FOvercast.5 mph79%30.59 "Hg9 mi
7:00 am14 °FOvercast.5 mph79%30.61 "Hg9 mi
6:00 am14 °FOvercast.6 mph79%30.61 "Hg9 mi
5:00 am16 °FOvercast.3 mph73%30.62 "Hg9 mi
4:00 am12 °FOvercast.2 mph85%30.63 "Hg9 mi
3:00 am10 °FOvercast.2 mph79%30.65 "Hg9 mi
2:00 am12 °FPassing clouds.No wind73%30.66 "Hg9 mi
1:00 am10 °FClear.5 mph79%30.67 "Hg9 mi
Weather by CustomWeather, © 2016

See weather overviewHow to use our weather pages